User: anonymous   Login
Location: Trois-Rivi�res
(46.3500°N, 72.5500°W)
Time: 03:44:19
(UTC-05:00)
Language:

Cosmos 1975 - Orbit

View from above orbital plane
View from above orbital plane
View from above satellite
View from above satellite

Ground track
Ground track

The orbit data is extracted from the following two-line orbital elements,

1 19573U 88093A   17351.53316727  .00000110  00000-0  57889-5 0  9998
2 19573  82.5191 168.0783 0015128  39.4917 320.7409 15.04359150587374
Epoch (UTC): 17 December 2017 12:47:45
Eccentricity: 0.0015128
inclination: 82.5191°
perigee height: 543 km
apogee height: 564 km
right ascension of ascending node: 168.0783°
argument of perigee: 39.4917°
revolutions per day: 15.04359150
mean anomaly at epoch: 320.7409°
orbit number at epoch: 58737

The dashed part of the orbit path shows where the satellite is in the earth's shadow,  

DLR